This is the latest recevied weather packets stored in our database for station/object AE0NK. If no packets are shown the sender has not sent any weather packets the latest 1 day(s).
| Time | Temp. | Humidity | Pressure | Rain* | Wind** | Luminosity | Snow |
|---|---|---|---|---|---|---|---|
| 1778057297 | 5° C | 68% | 1013.3 hPa | 0 mm | - | 0 W/m² | - |
| 1778056693 | 5° C | 69% | 1013.3 hPa | 0 mm | - | 0 W/m² | - |
| 1778055804 | 5° C | 68% | 1013.2 hPa | 0 mm | - | 0 W/m² | - |
| 1778055502 | 5° C | 71% | 1013.3 hPa | 0 mm | - | 0 W/m² | - |
| 1778054898 | 5.56° C | 69% | 1013.4 hPa | 0 mm | - | 0 W/m² | - |
| 1778054597 | 5.56° C | 70% | 1013.5 hPa | 0 mm | - | 0 W/m² | - |
| 1778054309 | 5.56° C | 70% | 1013.5 hPa | 0 mm | - | 0 W/m² | - |
| 1778053399 | 5.56° C | 69% | 1013.4 hPa | 0 mm | - | 0 W/m² | - |
| 1778053116 | 5.56° C | 68% | 1013.4 hPa | 0 mm | - | 0 W/m² | - |
| 1778052810 | 5.56° C | 66% | 1013.5 hPa | 0 mm | - | 0 W/m² | - |
| 1778052509 | 5.56° C | 65% | 1013.4 hPa | 0 mm | - | 0 W/m² | - |
| 1778051903 | 5.56° C | 67% | 1013.2 hPa | 0 mm | - | 0 W/m² | - |
| 1778051600 | 5.56° C | 67% | 1013.2 hPa | 0 mm | - | 0 W/m² | - |
| 1778050996 | 6.11° C | 65% | 1013.1 hPa | 0 mm | - | 0 W/m² | - |
| 1778050408 | 6.11° C | 64% | 1012.9 hPa | 0 mm | - | 0 W/m² | - |
| 1778050104 | 6.11° C | 63% | 1012.9 hPa | 0 mm | - | 0 W/m² | - |
| 1778049801 | 6.11° C | 62% | 1012.8 hPa | 0 mm | - | 0 W/m² | - |
| 1778049500 | 6.11° C | 62% | 1012.8 hPa | 0 mm | - | 0 W/m² | - |
| 1778048308 | 6.67° C | 57% | 1012.7 hPa | 0 mm | - | 0 W/m² | - |
| 1778046813 | 7.22° C | 57% | 1012.7 hPa | 0 mm | - | 0 W/m² | - |
| 1778046507 | 7.78° C | 56% | 1012.7 hPa | 0 mm | - | 0 W/m² | - |
| 1778046204 | 7.78° C | 55% | 1012.6 hPa | 0 mm | - | 0 W/m² | - |
| 1778045902 | 7.78° C | 55% | 1012.5 hPa | 0 mm | - | 0 W/m² | - |
| 1778045294 | 8.33° C | 53% | 1012.4 hPa | 0 mm | - | 0 W/m² | - |
| 1778044708 | 8.33° C | 52% | 1012.5 hPa | 0 mm | - | 0 W/m² | - |
* Rain latest hour (hover to see other rain measurements)
** Current wind speed in m/s (hover to see current wind gust speed)